C/2022 H1 ( PanSTARRS )

Japanese version
Home page
Updated on September 11, 2022

---------------------------------------------------------------------

* Profile

Discovery Date April 21, 2022
Magnitude 20.6 mag
Discoverer Pan-STARRS 2 telescope (Haleakala)

* Orbital Elements

Epoch 2022 Aug. 9.0 TT = JDT 2459800.5                                          
T 2024 Jan. 18.83909 TT                                 Rudenko                 
q   7.6927389            (2000.0)            P               Q                  
z  +0.0009226      Peri.  246.26710     -0.33454864     +0.93855473             
 +/-0.0000391      Node     6.36819     -0.30051610     -0.02095760             
e   0.9929024      Incl.   49.87118     -0.89317819     -0.34449353             
From 62 observations 2022 Mar. 2-Aug. 1, mean residual 0".4.                    

* Magnitudes Graph

        m1 = 6.0 + 5 log d + 10.0 log r

---------------------------------------------------------------------

The orbital elements are published on M.P.E.C. 2022-P82.
The magnitudes graphs are made with Comet for Windows.

---------------------------------------------------------------------

Copyright(C) Seiichi Yoshida (comet@aerith.net). All rights reserved.